Location: *
(51.1248°S, 108.4023°W)
Time: 21:20:28
(UTC+00:00)

Cosmos 2278 Rocket - Pass Details

Date: 31 October 2021
Orbit: 841 x 845 km, 71.0° (Epoch: 30 November)

Event Time Altitude Azimuth Distance (km) Brightness Sun altitude
Exits shadow 06:30:07 15° 293° (WNW) 2,124 4.1 -24.4°
Maximum altitude 06:34:24 40° 229° (SW) 1,237 3.3 -24.5°
Drops below altitude 10° 06:39:49 10° 159° (SSE) 2,499 5.5 -24.6°
Sets 06:42:27 0° 151° (SSE) 3,440 6.3 -24.6°
